NKS552 KPBI-KMIA

Flight info

Callsign NKS552
Flight time 0h 17m
Altitude 10000
Route DCT SPNER/N0275F060 DCT VKZ DCT
Aircraft A21N/M-V/N

Departure

Time 2026-04-17 22:17
Airport Palm Beach International Airport (KPBI)

Arrival

Time 2026-04-17 22:35
Airport Miami International Airport (KMIA)
Time Latitude Longitude Altitude Speed Heading
2026-04-17 22:07 26.68648 -80.09280 29 ft 0 kts 317°
2026-04-17 22:09 26.68633 -80.09265 29 ft 4 kts 317°
2026-04-17 22:09 26.68615 -80.09247 29 ft 3 kts 316°
2026-04-17 22:10 26.68602 -80.09225 29 ft 4 kts 264°
2026-04-17 22:10 26.68612 -80.09200 29 ft 4 kts 228°
2026-04-17 22:10 26.68619 -80.09193 29 ft 0 kts 227°
2026-04-17 22:12 26.68616 -80.09196 29 ft 2 kts 227°
2026-04-17 22:12 26.68586 -80.09232 29 ft 11 kts 227°
2026-04-17 22:13 26.68516 -80.09318 29 ft 18 kts 228°
2026-04-17 22:13 26.68479 -80.09361 29 ft 2 kts 226°
2026-04-17 22:13 26.68465 -80.09407 29 ft 21 kts 272°
2026-04-17 22:13 26.68550 -80.09526 29 ft 18 kts 315°
2026-04-17 22:14 26.68638 -80.09626 29 ft 17 kts 304°
2026-04-17 22:14 26.68640 -80.09790 28 ft 23 kts 259°
2026-04-17 22:14 26.68595 -80.09951 28 ft 22 kts 223°
2026-04-17 22:14 26.68556 -80.10055 28 ft 14 kts 276°
2026-04-17 22:15 26.68576 -80.10199 28 ft 21 kts 265°
2026-04-17 22:15 26.68561 -80.10357 28 ft 20 kts 264°
2026-04-17 22:15 26.68555 -80.10510 28 ft 19 kts 273°
2026-04-17 22:15 26.68563 -80.10677 28 ft 30 kts 273°
2026-04-17 22:16 26.68486 -80.10815 28 ft 21 kts 180°
2026-04-17 22:16 26.68343 -80.10804 28 ft 20 kts 146°
2026-04-17 22:16 26.68314 -80.10663 28 ft 25 kts 93°
2026-04-17 22:16 26.68293 -80.10171 29 ft 103 kts 93°
2026-04-17 22:17 26.68248 -80.09103 197 ft 158 kts 92°
2026-04-17 22:17 26.67947 -80.07878 983 ft 173 kts 117°
2026-04-17 22:17 26.67104 -80.06886 1809 ft 184 kts 138°
2026-04-17 22:17 26.65995 -80.06041 2520 ft 205 kts 139°
2026-04-17 22:18 26.64836 -80.04927 2902 ft 240 kts 151°
2026-04-17 22:18 26.63190 -80.04257 3581 ft 262 kts 165°
2026-04-17 22:18 26.61296 -80.03892 4117 ft 292 kts 173°
2026-04-17 22:18 26.59161 -80.03695 4597 ft 323 kts 176°
2026-04-17 22:19 26.56818 -80.03554 5173 ft 348 kts 177°
2026-04-17 22:19 26.54351 -80.03395 6080 ft 360 kts 176°
2026-04-17 22:19 26.51864 -80.03196 7107 ft 367 kts 176°
2026-04-17 22:19 26.49285 -80.02952 8005 ft 377 kts 175°
2026-04-17 22:20 26.46650 -80.02669 8921 ft 385 kts 174°
2026-04-17 22:20 26.43944 -80.02371 9684 ft 396 kts 176°
2026-04-17 22:20 26.41158 -80.02421 10416 ft 405 kts 185°
2026-04-17 22:20 26.38344 -80.02808 11205 ft 411 kts 189°
2026-04-17 22:21 26.35561 -80.03355 11605 ft 398 kts 191°
2026-04-17 22:21 26.32889 -80.03948 11363 ft 396 kts 192°
2026-04-17 22:21 26.30113 -80.04558 11312 ft 420 kts 189°
2026-04-17 22:21 26.27212 -80.04919 11924 ft 421 kts 185°
2026-04-17 22:22 26.24253 -80.05192 11848 ft 426 kts 185°
2026-04-17 22:22 26.21355 -80.05506 11340 ft 418 kts 186°
2026-04-17 22:22 26.18449 -80.05883 10653 ft 421 kts 187°
2026-04-17 22:22 26.15574 -80.06261 10400 ft 411 kts 186°
2026-04-17 22:23 26.12705 -80.06529 10025 ft 426 kts 183°
2026-04-17 22:23 26.09907 -80.07013 10541 ft 394 kts 190°
2026-04-17 22:23 26.07034 -80.07378 8641 ft 429 kts 183°
2026-04-17 22:23 26.04201 -80.07567 8276 ft 392 kts 183°
2026-04-17 22:24 26.01472 -80.07789 7321 ft 390 kts 184°
2026-04-17 22:24 25.98867 -80.08024 6569 ft 380 kts 185°
2026-04-17 22:24 25.96213 -80.08329 5622 ft 380 kts 187°
2026-04-17 22:24 25.93619 -80.08683 4566 ft 381 kts 188°
2026-04-17 22:25 25.91031 -80.09199 3938 ft 372 kts 194°
2026-04-17 22:25 25.88627 -80.10135 3371 ft 362 kts 202°
2026-04-17 22:25 25.86411 -80.11379 2775 ft 352 kts 210°
2026-04-17 22:25 25.84415 -80.12891 2360 ft 340 kts 218°
2026-04-17 22:26 25.82739 -80.14736 2355 ft 338 kts 228°
2026-04-17 22:26 25.81295 -80.16691 1901 ft 328 kts 233°
2026-04-17 22:26 25.80463 -80.18931 1635 ft 306 kts 267°
2026-04-17 22:26 25.80479 -80.21232 1058 ft 293 kts 269°
2026-04-17 22:27 25.80346 -80.23309 1304 ft 243 kts 265°
2026-04-17 22:27 25.80281 -80.25200 425 ft 249 kts 268°
2026-04-17 22:27 25.80193 -80.27024 180 ft 226 kts 266°
2026-04-17 22:27 25.80093 -80.28681 1342 ft 197 kts 262°
2026-04-17 22:28 25.79690 -80.30131 2301 ft 205 kts 226°
2026-04-17 22:28 25.78419 -80.30893 2769 ft 218 kts 179°
2026-04-17 22:28 25.77002 -80.30385 2910 ft 231 kts 139°
2026-04-17 22:28 25.76163 -80.28928 2446 ft 218 kts 98°
2026-04-17 22:29 25.76129 -80.27355 2314 ft 194 kts 89°
2026-04-17 22:29 25.76163 -80.25859 2059 ft 197 kts 87°
2026-04-17 22:29 25.76462 -80.24372 1849 ft 201 kts 67°
2026-04-17 22:29 25.77127 -80.22994 1618 ft 207 kts 62°
2026-04-17 22:30 25.77863 -80.21577 1269 ft 218 kts 51°
2026-04-17 22:30 25.79150 -80.20927 1270 ft 200 kts 359°
2026-04-17 22:30 25.80402 -80.21307 1249 ft 173 kts 339°
2026-04-17 22:30 25.81256 -80.22111 1003 ft 154 kts 293°
2026-04-17 22:31 25.81724 -80.25926 3350 ft 268 kts 268°
2026-04-17 22:31 25.81213 -80.27685 3458 ft 227 kts 230°
2026-04-17 22:31 25.79939 -80.28494 2977 ft 208 kts 180°
2026-04-17 22:32 25.78505 -80.27980 2127 ft 240 kts 135°
2026-04-17 22:32 25.78003 -80.26277 2032 ft 230 kts 88°
2026-04-17 22:32 25.78061 -80.24653 2046 ft 196 kts 84°
2026-04-17 22:32 25.78462 -80.23311 1983 ft 175 kts 57°
2026-04-17 22:33 25.79379 -80.22587 1831 ft 157 kts 19°
2026-04-17 22:33 25.80424 -80.22637 1699 ft 155 kts 341°
2026-04-17 22:33 25.80939 -80.23606 1351 ft 157 kts 261°
2026-04-17 22:33 25.80631 -80.24827 749 ft 167 kts 253°
2026-04-17 22:34 25.80451 -80.26096 321 ft 165 kts 264°
2026-04-17 22:34 25.80406 -80.27317 114 ft 152 kts 266°
2026-04-17 22:34 25.80356 -80.28438 25 ft 132 kts 269°
2026-04-17 22:34 25.80331 -80.29248 24 ft 81 kts 272°
2026-04-17 22:35 25.80178 -80.29506 24 ft 34 kts 186°
2026-04-17 22:35 25.80004 -80.29497 21 ft 17 kts 144°